KC2DUX Eldora NJ US current weather conditions

sailwx.info

Wind from 257

Air temperature 27.8° C
Dewpoint -33.1° C

Last reported at 2020-Aug-06 00:01 UTC.
Time now 2020-Aug-06 00:24 UTC

Location: N 39°11' W 074°49'.
View on Google Maps.

See reports from other nearby stations

  
Tides and Currents Weather Stations Pressure Air Temp Water Temp Dewpoint Dewpoint Depression Visibility Wind Speed Wind Dir Waves Ship Positions
date/time (UTC)wind fromknots sea level pressurealtimeterstation pressurevisibilityair tempwater tempwave heightnotes
2020-Aug-06 00:05 257 27.8
2020-Aug-06 00:01 257 27.8
2020-Aug-05 23:55 257 27.8
2020-Aug-05 23:50 257 28.3
2020-Aug-05 23:46 257 28.3
2020-Aug-05 23:40 257 28.3
2020-Aug-05 23:35 257 28.9
2020-Aug-05 23:30 257 28.9
2020-Aug-05 23:25 257 28.9
2020-Aug-05 23:20 257 28.9
2020-Aug-05 23:10 257 28.9
2020-Aug-05 23:05 257 0 gusting 2 29.4
2020-Aug-05 23:00 257 0 gusting 3 29.4
2020-Aug-05 22:51 257 29.4
2020-Aug-05 22:47 256 29.4
2020-Aug-05 22:40 256 0 gusting 3 29.4
2020-Aug-05 22:36 255 0 gusting 6 29.4
2020-Aug-05 22:30 222 2 gusting 6 30.0
2020-Aug-05 22:25 229 1 gusting 6 30.0
2020-Aug-05 22:20 215 2 gusting 6 30.0
2020-Aug-05 22:15 215 1 gusting 6 30.6
2020-Aug-05 22:10 227 3 gusting 6 30.6
2020-Aug-05 22:05 232 0 gusting 5 31.1
2020-Aug-05 22:00 215 1 gusting 5 31.1
2020-Aug-05 21:55 232 0 gusting 6 31.1
2020-Aug-05 21:50 277 1 gusting 6 30.6
2020-Aug-05 21:46 260 2 gusting 6 30.6
2020-Aug-05 21:40 233 1 gusting 7 30.6
2020-Aug-05 21:35 296 4 gusting 7 30.6
2020-Aug-05 21:30 213 3 gusting 6 31.1
2020-Aug-05 21:25 229 2 gusting 6 31.1
2020-Aug-05 21:20 206 1 gusting 6 31.1
2020-Aug-05 21:16 269 2 gusting 7 31.1
2020-Aug-05 21:10 243 3 gusting 6 30.6
2020-Aug-05 21:05 221 3 gusting 8 30.6
2020-Aug-05 21:00 224 4 gusting 9 30.6
2020-Aug-05 20:55 198 3 gusting 9 30.6
2020-Aug-05 20:50 206 4 gusting 8 30.6
2020-Aug-05 20:45 240 2 gusting 6 30.6
2020-Aug-05 20:40 268 3 gusting 10 30.6
2020-Aug-05 20:35 240 5 gusting 10 30.6
2020-Aug-05 20:30 236 3 gusting 9 31.1
2020-Aug-05 20:25 268 1 gusting 8 31.1
2020-Aug-05 20:20 216 3 gusting 10 31.1
2020-Aug-05 20:15 232 4 gusting 10 31.1
2020-Aug-05 20:10 326 3 gusting 9 31.1
2020-Aug-05 20:05 217 4 gusting 9 30.6
2020-Aug-05 20:00 246 4 gusting 9 30.6
2020-Aug-05 19:55 217 4 gusting 9 30.6
2020-Aug-05 19:50 217 3 gusting 11 30.6
2020-Aug-05 19:40 211 4 gusting 9 30.6
2020-Aug-05 19:33 227 4 gusting 9 30.6
2020-Aug-05 19:25 215 3 gusting 8 30.6
2020-Aug-05 19:20 250 4 gusting 10 30.6
2020-Aug-05 19:16 235 6 gusting 10 30.6
2020-Aug-05 19:11 211 3 gusting 9 30.6
2020-Aug-05 19:05 271 5 gusting 9 30.6
2020-Aug-05 19:01 226 4 gusting 9 30.6
2020-Aug-05 18:55 215 6 gusting 10 30.6
2020-Aug-05 18:50 230 6 gusting 11 30.6
2020-Aug-05 18:46 294 2 gusting 8 30.6
2020-Aug-05 18:40 273 3 gusting 8 30.6
2020-Aug-05 18:35 223 3 gusting 7 30.6
2020-Aug-05 18:30 217 4 gusting 7 30.6
2020-Aug-05 18:25 257 3 gusting 9 30.6
2020-Aug-05 18:20 244 3 gusting 8 30.0
2020-Aug-05 18:16 234 4 gusting 9 30.0
2020-Aug-05 18:10 222 4 gusting 9 30.0
2020-Aug-05 18:05 249 4 gusting 8 30.0
2020-Aug-05 18:01 223 5 gusting 9 30.0
2020-Aug-05 17:55 216 4 gusting 10 30.0
2020-Aug-05 17:50 211 5 gusting 10 30.0
2020-Aug-05 17:46 240 3 gusting 9 30.0
2020-Aug-05 17:40 215 4 gusting 12 30.0
2020-Aug-05 17:35 269 5 gusting 12 30.0
2020-Aug-05 17:30 259 4 gusting 7 30.0
2020-Aug-05 17:25 314 2 gusting 7 29.4
2020-Aug-05 17:20 211 4 gusting 7 29.4
2020-Aug-05 17:15 271 4 gusting 8 29.4
2020-Aug-05 17:10 273 3 gusting 9 29.4
2020-Aug-05 17:05 231 2 gusting 9 29.4
2020-Aug-05 17:00 223 2 gusting 7 29.4
2020-Aug-05 16:55 236 3 gusting 8 29.4
2020-Aug-05 16:50 292 5 gusting 10 29.4
2020-Aug-05 16:40 215 3 gusting 8 29.4
2020-Aug-05 16:30 267 3 gusting 7 29.4
2020-Aug-05 16:20 239 3 gusting 10 29.4
2020-Aug-05 16:11 253 4 gusting 8 29.4
2020-Aug-05 16:05 244 5 gusting 7 28.9
2020-Aug-05 16:03 227 5 gusting 8 28.9
2020-Aug-05 15:55 261 3 gusting 7 28.9
2020-Aug-05 15:50 257 3 gusting 8 29.4
2020-Aug-05 15:47 260 5 gusting 8 29.4
2020-Aug-05 15:40 244 4 gusting 8 29.4
2020-Aug-05 15:36 249 2 gusting 7 29.4
2020-Aug-05 15:32 251 2 gusting 8 29.4
2020-Aug-05 15:25 237 2 gusting 8 30.0
2020-Aug-05 15:20 029 0 gusting 2 30.6
2020-Aug-05 15:17 033 0 gusting 4 30.6
2020-Aug-05 15:10 025 2 gusting 4 30.6
2020-Aug-05 15:05 327 1 gusting 3 30.6
2020-Aug-05 15:01 297 0 gusting 2 30.0
2020-Aug-05 14:55 294 29.4
2020-Aug-05 14:50 299 1 gusting 4 30.0
2020-Aug-05 14:45 360 0 gusting 3 29.4
2020-Aug-05 14:40 349 0 gusting 2 28.9
2020-Aug-05 14:35 355 0 gusting 2 28.9
2020-Aug-05 14:30 355 0 gusting 2 28.9
2020-Aug-05 14:25 350 0 gusting 3 28.9
2020-Aug-05 14:20 355 0 gusting 3 28.9
2020-Aug-05 14:16 321 29.4
2020-Aug-05 14:10 323 0 gusting 2 28.9
2020-Aug-05 14:05 315 28.9
2020-Aug-05 14:00 315 0 gusting 3 28.9
2020-Aug-05 13:55 053 1 gusting 3 28.9
2020-Aug-05 13:50 082 28.3
2020-Aug-05 13:45 083 0 gusting 2 27.8
2020-Aug-05 13:40 071 0 gusting 3 27.8
2020-Aug-05 13:35 071 0 gusting 3 28.3
2020-Aug-05 13:25 092 0 gusting 3 27.8
2020-Aug-05 13:20 091 0 gusting 3 27.8
2020-Aug-05 13:10 086 0 gusting 2 27.2
2020-Aug-05 13:05 086 27.2
2020-Aug-05 13:00 084 0 gusting 3 27.2
2020-Aug-05 12:51 085 1 gusting 3 26.7
2020-Aug-05 12:47 076 1 gusting 4 26.7
2020-Aug-05 12:40 076 1 gusting 4 26.7
2020-Aug-05 12:35 042 26.1
2020-Aug-05 12:33 042 0 gusting 4 25.6
2020-Aug-05 12:25 050 25.0
2020-Aug-05 12:21 290 24.4
2020-Aug-05 12:16 270 0 gusting 5 24.4
2020-Aug-05 12:10 269 0 gusting 2 24.4
2020-Aug-05 12:05 269 0 gusting 2 23.9
2020-Aug-05 12:01 269 23.9
2020-Aug-05 11:55 269 23.9
2020-Aug-05 11:50 269 23.3
2020-Aug-05 11:46 269 23.3
2020-Aug-05 11:40 269 0 gusting 1 22.8
2020-Aug-05 11:35 269 22.8
2020-Aug-05 11:31 269 22.8
2020-Aug-05 11:25 269 22.2
2020-Aug-05 11:20 269 22.2
2020-Aug-05 11:16 269 22.2
2020-Aug-05 11:10 269 21.7
2020-Aug-05 11:05 269 21.7
2020-Aug-05 11:00 269 21.7
2020-Aug-05 10:55 269 21.7
2020-Aug-05 10:50 269 21.1
2020-Aug-05 10:46 269 21.1
2020-Aug-05 10:40 269 21.1
2020-Aug-05 10:35 269 21.1
2020-Aug-05 10:30 269 21.1
2020-Aug-05 10:25 269 21.1
2020-Aug-05 10:20 269 21.1
2020-Aug-05 10:15 269 21.1
2020-Aug-05 10:10 269 21.1
2020-Aug-05 10:05 269 21.1
2020-Aug-05 09:55 269 21.1
2020-Aug-05 09:50 269 21.1
2020-Aug-05 09:45 269 21.7
2020-Aug-05 09:40 269 21.7
2020-Aug-05 09:35 269 21.7
2020-Aug-05 09:26 269 21.7
2020-Aug-05 09:21 269 21.7
2020-Aug-05 09:17 269 21.7
2020-Aug-05 09:11 269 21.7
2020-Aug-05 09:05 269 21.7
2020-Aug-05 09:01 269 21.7
2020-Aug-05 08:55 269 21.7
2020-Aug-05 08:50 269 21.7
2020-Aug-05 08:47 269 21.7
2020-Aug-05 08:40 269 21.7
2020-Aug-05 08:35 269 22.2
2020-Aug-05 08:31 269 22.2
2020-Aug-05 08:25 269 22.2
2020-Aug-05 08:20 269 22.2
2020-Aug-05 08:18 269 22.2
2020-Aug-05 08:10 269 22.2
2020-Aug-05 08:05 269 0 gusting 2 22.2
2020-Aug-05 08:00 269 22.2
2020-Aug-05 07:55 269 22.8
2020-Aug-05 07:50 269 22.8
2020-Aug-05 07:45 269 22.8
2020-Aug-05 07:40 269 22.8
2020-Aug-05 07:35 269 22.8
2020-Aug-05 07:30 269 23.3
2020-Aug-05 07:25 269 23.3
2020-Aug-05 07:20 269 23.3
2020-Aug-05 07:15 269 23.3
2020-Aug-05 07:10 269 23.9
2020-Aug-05 07:05 269 23.9
2020-Aug-05 07:00 269 23.9
2020-Aug-05 06:55 269 24.4
2020-Aug-05 06:50 269 24.4
2020-Aug-05 06:45 269 24.4
2020-Aug-05 06:40 269 24.4
2020-Aug-05 06:35 269 24.4
2020-Aug-05 06:30 269 24.4
2020-Aug-05 06:25 269 25.0
2020-Aug-05 06:20 269 0 gusting 2 25.0
2020-Aug-05 06:15 269 25.0
2020-Aug-05 06:10 269 25.0
2020-Aug-05 06:01 267 25.0
2020-Aug-05 05:55 265 2 gusting 7 25.0
2020-Aug-05 05:51 249 25.6
2020-Aug-05 05:47 248 0 gusting 3 25.6
2020-Aug-05 05:40 248 1 gusting 3 25.6
2020-Aug-05 05:35 242 1 gusting 3 25.6
2020-Aug-05 05:31 256 1 gusting 6 25.6
2020-Aug-05 05:25 223 2 gusting 7 25.6
2020-Aug-05 05:20 311 0 gusting 8 25.6
2020-Aug-05 05:17 253 4 gusting 8 25.6
2020-Aug-05 05:10 273 2 gusting 8 25.6
2020-Aug-05 05:05 309 2 gusting 6 25.6
2020-Aug-05 05:01 229 2 gusting 6 25.6
2020-Aug-05 04:55 219 2 gusting 7 25.6
2020-Aug-05 04:50 219 3 gusting 6 25.0
2020-Aug-05 04:45 216 2 gusting 5 25.0
2020-Aug-05 04:40 219 0 gusting 5 25.0
2020-Aug-05 04:35 218 0 gusting 4 25.0
2020-Aug-05 04:30 220 1 gusting 6 25.0
2020-Aug-05 04:25 215 1 gusting 6 24.4
2020-Aug-05 04:20 221 2 gusting 6 24.4
2020-Aug-05 04:15 220 2 gusting 5 24.4
2020-Aug-05 04:10 221 2 gusting 5 24.4
2020-Aug-05 04:05 221 1 gusting 4 24.4
2020-Aug-05 04:01 220 2 gusting 6 24.4
2020-Aug-05 03:55 221 3 gusting 6 24.4
2020-Aug-05 03:50 221 2 gusting 5 24.4
2020-Aug-05 03:45 223 0 gusting 2 24.4
2020-Aug-05 03:40 223 0 gusting 3 24.4
2020-Aug-05 03:35 223 0 gusting 5 24.4
2020-Aug-05 03:25 216 0 gusting 3 24.4
2020-Aug-05 03:20 216 0 gusting 3 24.4
2020-Aug-05 03:15 216 0 gusting 4 25.0
2020-Aug-05 03:10 216 1 gusting 5 25.0
2020-Aug-05 03:05 220 3 gusting 7 25.0
2020-Aug-05 03:00 215 2 gusting 7 25.0
2020-Aug-05 02:55 227 2 gusting 6 25.0
2020-Aug-05 02:50 226 2 gusting 8 25.0
2020-Aug-05 02:40 225 5 gusting 9 25.6
2020-Aug-05 02:36 212 4 gusting 9 25.6
2020-Aug-05 02:32 215 5 gusting 13 25.0
2020-Aug-05 02:26 235 6 gusting 13 25.0
2020-Aug-05 02:20 215 5 gusting 12 25.0
2020-Aug-05 02:17 219 4 gusting 12 25.0
2020-Aug-05 02:10 213 5 gusting 8 24.4
2020-Aug-05 02:05 222 3 gusting 8 24.4
2020-Aug-05 02:01 222 3 gusting 8 24.4
2020-Aug-05 01:55 210 4 gusting 7 24.4
2020-Aug-05 01:50 217 4 gusting 7 24.4
2020-Aug-05 01:47 225 4 gusting 7 24.4
2020-Aug-05 01:40 219 3 gusting 7 24.4
2020-Aug-05 01:35 215 2 gusting 6 24.4
2020-Aug-05 01:31 219 2 gusting 6 24.4
2020-Aug-05 01:25 217 3 gusting 6 24.4
2020-Aug-05 01:20 219 3 gusting 6 23.9
2020-Aug-05 01:16 217 3 gusting 7 23.9
2020-Aug-05 01:10 222 3 gusting 7 24.4
2020-Aug-05 01:05 224 3 gusting 7 24.4
2020-Aug-05 01:00 223 3 gusting 6 24.4
2020-Aug-05 00:55 220 2 gusting 4 24.4
2020-Aug-05 00:50 201 1 gusting 3 24.4
2020-Aug-05 00:45 200 0 gusting 3 24.4
2020-Aug-05 00:40 200 1 gusting 5 24.4
2020-Aug-05 00:35 213 1 gusting 6 25.0
2020-Aug-05 00:31 206 2 gusting 6 25.0
2020-Aug-05 00:25 199 2 gusting 4 25.0
2020-Aug-05 00:20 202 2 gusting 6 25.0
2020-Aug-05 00:15 232 2 gusting 6 25.0
2020-Aug-05 00:10 219 2 gusting 6 25.6
2020-Aug-05 00:05 209 2 gusting 6 25.6
2020-Aug-05 00:00 198 1 gusting 4 26.1
2020-Aug-04 23:55 197 1 gusting 3 26.1
2020-Aug-04 23:50 185 1 gusting 4 26.1
2020-Aug-04 23:45 198 1 gusting 4 26.7
2020-Aug-04 23:40 198 0 gusting 4 26.7
2020-Aug-04 23:35 215 2 gusting 5 27.2
2020-Aug-04 23:25 179 1 gusting 5 28.3
2020-Aug-04 23:17 211 4 gusting 8 28.9
2020-Aug-04 23:10 223 5 gusting 9 28.9
2020-Aug-04 23:05 232 4 gusting 12 28.9
2020-Aug-04 23:01 227 6 gusting 12 28.9
2020-Aug-04 22:55 211 6 gusting 10 28.9
2020-Aug-04 22:51 219 6 gusting 10 28.9
2020-Aug-04 22:47 219 6 gusting 11 28.9
2020-Aug-04 22:40 227 6 gusting 13 28.9
2020-Aug-04 22:36 215 6 gusting 15 28.9
2020-Aug-04 22:31 230 8 gusting 15 28.9
2020-Aug-04 22:25 265 6 gusting 12 28.9
2020-Aug-04 22:20 221 6 gusting 14 28.9
2020-Aug-04 22:17 226 7 gusting 13 28.9
2020-Aug-04 22:10 239 7 gusting 15 28.9
2020-Aug-04 22:05 277 6 gusting 15 28.9
2020-Aug-04 22:01 205 7 gusting 14 28.9
2020-Aug-04 21:55 219 7 gusting 16 28.9
2020-Aug-04 21:50 227 8 gusting 17 28.9
2020-Aug-04 21:45 222 6 gusting 18 29.4
2020-Aug-04 21:40 227 9 gusting 18 29.4
2020-Aug-04 21:35 217 8 gusting 15 29.4
2020-Aug-04 21:30 200 6 gusting 18 29.4
2020-Aug-04 21:25 233 8 gusting 18 28.9
2020-Aug-04 21:20 218 11 gusting 19 28.9
2020-Aug-04 21:17 215 11 gusting 19 28.9
2020-Aug-04 21:10 234 8 gusting 19 28.9
2020-Aug-04 21:05 200 10 gusting 19 28.9
2020-Aug-04 21:01 248 8 gusting 19 28.9
2020-Aug-04 20:55 206 8 gusting 19 28.9
2020-Aug-04 20:50 230 10 gusting 20 28.3
2020-Aug-04 20:45 254 13 gusting 20 28.3
2020-Aug-04 20:40 203 10 gusting 18 28.3
2020-Aug-04 20:35 240 10 gusting 16 28.9
2020-Aug-04 20:20 211 10 gusting 18 28.3
2020-Aug-04 20:15 242 9 gusting 19 28.3
2020-Aug-04 20:10 236 12 gusting 19 28.3
2020-Aug-04 20:05 217 8 gusting 19 28.3
2020-Aug-04 19:56 261 8 gusting 23 28.3
2020-Aug-04 19:51 245 6 gusting 23 27.8
2020-Aug-04 19:47 238 6 gusting 17 27.8
2020-Aug-04 19:40 230 7 gusting 16 28.3
2020-Aug-04 19:35 240 8 gusting 16 27.8
2020-Aug-04 19:32 220 7 gusting 18 27.8
2020-Aug-04 19:25 217 8 gusting 17 27.8
2020-Aug-04 19:20 327 8 gusting 18 27.8
2020-Aug-04 19:17 202 9 gusting 20 27.8
2020-Aug-04 19:10 236 10 gusting 17 27.2
2020-Aug-04 19:05 298 9 gusting 19 27.2
2020-Aug-04 19:01 224 10 gusting 19 27.2
2020-Aug-04 18:55 231 13 gusting 22 27.2
2020-Aug-04 18:50 222 10 gusting 22 27.2
2020-Aug-04 18:46 225 13 gusting 22 26.7
2020-Aug-04 18:40 217 12 gusting 23 26.7
2020-Aug-04 18:35 223 14 gusting 23 26.1
2020-Aug-04 18:30 228 13 gusting 27 26.1
2020-Aug-04 18:25 196 13 gusting 27 26.1
2020-Aug-04 18:20 231 14 gusting 23 26.1
2020-Aug-04 18:15 203 9 gusting 19 26.1
2020-Aug-04 18:10 256 10 gusting 22 25.6
2020-Aug-04 18:05 220 10 gusting 23 25.0
2020-Aug-04 18:00 238 12 gusting 27 25.0
2020-Aug-04 17:55 213 10 gusting 27 25.0
2020-Aug-04 17:50 213 13 gusting 25 24.4
2020-Aug-04 14:45 215 14 gusting 34 23.3
2020-Aug-04 14:40 177 13 gusting 34 23.9
2020-Aug-04 14:30
2020-Aug-04 14:20
2020-Aug-04 14:10 186 7 gusting 26 24.4
2020-Aug-04 14:05 149 7 gusting 26 24.4
2020-Aug-04 14:00
2020-Aug-04 13:55
2020-Aug-04 13:46 300 7 gusting 16 24.4
2020-Aug-04 13:40 336 6 gusting 17 24.4
2020-Aug-04 13:36 245 6 gusting 24 24.4
2020-Aug-04 13:25 223 11 gusting 37 24.4
2020-Aug-04 13:20 150 12 gusting 37 24.4
2020-Aug-04 13:16 065 8 gusting 19 24.4
2020-Aug-04 13:10 066 7 gusting 19 24.4
2020-Aug-04 13:06 107 11 gusting 19 25.0
2020-Aug-04 13:02 090 6 gusting 19 25.0
2020-Aug-04 12:55 106 6 gusting 18 25.0
2020-Aug-04 12:50 103 6 gusting 19 25.0
2020-Aug-04 12:46 086 9 gusting 19 25.0
2020-Aug-04 12:41 163 6 gusting 18 25.0
2020-Aug-04 12:35 104 6 gusting 18 25.0
2020-Aug-04 12:30 121 6 gusting 18 25.0
2020-Aug-04 12:25 056 6 gusting 17 25.0
2020-Aug-04 12:20 093 5 gusting 17 25.0
2020-Aug-04 12:15 121 8 gusting 16 25.0
2020-Aug-04 12:10 062 6 gusting 13 25.0
2020-Aug-04 12:05 046 6 gusting 13 25.0
2020-Aug-04 12:00 073 4 gusting 17 25.0
2020-Aug-04 11:55 120 7 gusting 17 25.6
2020-Aug-04 11:50 082 5 gusting 12 25.6
2020-Aug-04 11:46 134 3 gusting 11 25.6
2020-Aug-04 11:40 064 3 gusting 11 25.6
2020-Aug-04 11:35 101 4 gusting 10 25.6
2020-Aug-04 11:30 096 4 gusting 10 25.6
2020-Aug-04 11:25 094 2 gusting 10 25.6
2020-Aug-04 11:20 254 3 gusting 13 25.6
2020-Aug-04 11:15 081 5 gusting 13 25.6
2020-Aug-04 11:10 101 3 gusting 8 25.6
2020-Aug-04 11:05 101 3 gusting 8 25.0
2020-Aug-04 10:55 181 3 gusting 10 25.0
2020-Aug-04 10:50 117 3 gusting 10 25.0
2020-Aug-04 10:40 105 1 gusting 10 25.0
2020-Aug-04 10:35 155 3 gusting 10 25.0
2020-Aug-04 10:25 118 4 gusting 9 25.0
2020-Aug-04 10:20 205 2 gusting 8 25.0
2020-Aug-04 10:17 105 2 gusting 6 25.0
2020-Aug-04 10:10 198 1 gusting 11 25.0
2020-Aug-04 10:05 126 2 gusting 9 25.0
2020-Aug-04 10:01 085 2 gusting 8 25.0
2020-Aug-04 09:55 319 1 gusting 8 25.0
2020-Aug-04 09:51 110 1 gusting 7 25.0
2020-Aug-04 09:46 101 2 gusting 7 25.0
2020-Aug-04 09:40 130 1 gusting 6 25.0
2020-Aug-04 09:35 266 1 gusting 6 25.0
2020-Aug-04 09:31 153 0 gusting 6 25.0
2020-Aug-04 09:25 098 0 gusting 4 25.0
2020-Aug-04 09:20 133 0 gusting 6 25.0
2020-Aug-04 09:16 150 1 gusting 6 25.0
2020-Aug-04 09:10 185 2 gusting 7 25.0
2020-Aug-04 09:05 178 0 gusting 6 25.0
2020-Aug-04 09:01 257 1 gusting 6 25.0
2020-Aug-04 08:55 150 1 gusting 5 25.0
2020-Aug-04 08:50 199 1 gusting 6 25.0
2020-Aug-04 08:46 236 0 gusting 6 25.0
2020-Aug-04 08:40 190 1 gusting 4 25.0
2020-Aug-04 08:35 009 0 gusting 5 25.0
2020-Aug-04 08:30 225 1 gusting 5 25.0
2020-Aug-04 08:25 166 1 gusting 5 25.0
2020-Aug-04 08:20 226 2 gusting 5 25.0
2020-Aug-04 08:16 183 1 gusting 4 25.0
2020-Aug-04 08:10 217 1 gusting 6 25.6
2020-Aug-04 08:05 092 2 gusting 6 25.6
2020-Aug-04 08:00 215 2 gusting 5 25.6
2020-Aug-04 07:55 218 1 gusting 6 25.6
2020-Aug-04 07:50 227 2 gusting 4 25.6
2020-Aug-04 07:45 199 2 gusting 7 25.6
2020-Aug-04 07:40 229 1 gusting 7 25.6
2020-Aug-04 07:35 218 3 gusting 6 25.6
2020-Aug-04 07:25 207 2 gusting 6 25.6
2020-Aug-04 07:20 217 2 gusting 5 25.6
2020-Aug-04 07:06 216 1 gusting 6 25.6
2020-Aug-04 07:02 205 1 gusting 4 25.6
2020-Aug-04 06:55 213 2 gusting 4 25.6
2020-Aug-04 06:50 178 1 gusting 4 25.0
2020-Aug-04 06:46 188 0 gusting 3 25.0
2020-Aug-04 06:40 186 25.0
2020-Aug-04 06:35 186 25.0
2020-Aug-04 06:31 186 24.4
2020-Aug-04 06:25 196 0 gusting 1 24.4
2020-Aug-04 06:20 200 24.4
2020-Aug-04 06:16 200 23.9
2020-Aug-04 06:10 200 23.9
2020-Aug-04 06:05 200 23.9
2020-Aug-04 06:02 200 23.9
2020-Aug-04 05:55 200 23.9
2020-Aug-04 05:50 200 23.9
2020-Aug-04 05:46 205 23.9
2020-Aug-04 05:40 205 23.9
2020-Aug-04 05:35 205 23.9
2020-Aug-04 05:31 205 23.9
2020-Aug-04 05:25 205 23.9
2020-Aug-04 05:21 205 23.9
2020-Aug-04 05:16 205 0 gusting 1 23.9
2020-Aug-04 05:10 205 0 gusting 1 24.4
2020-Aug-04 05:05 205 24.4
2020-Aug-04 05:01 205 23.9
2020-Aug-04 04:55 205 23.9
2020-Aug-04 04:50 205 23.9
2020-Aug-04 04:45 205 23.9
2020-Aug-04 04:40 205 23.9
2020-Aug-04 04:35 205 23.9
2020-Aug-04 04:25 205 23.9
2020-Aug-04 04:20 205 23.9
2020-Aug-04 04:10 205 23.9
2020-Aug-04 04:05 205 23.9
2020-Aug-04 04:00 205 23.9
2020-Aug-04 03:55 205 23.9
2020-Aug-04 03:47 205 23.9
2020-Aug-04 03:40 205 23.9
2020-Aug-04 03:35 205 24.4
2020-Aug-04 03:31 205 24.4
2020-Aug-04 03:25 205 24.4
2020-Aug-04 03:21 205 24.4
2020-Aug-04 03:16 205 24.4
2020-Aug-04 03:10 205 24.4
2020-Aug-04 03:06 205 24.4
2020-Aug-04 03:01 205 24.4
2020-Aug-04 02:55 205 24.4
2020-Aug-04 02:50 205 24.4
2020-Aug-04 02:46 205 24.4
2020-Aug-04 02:40 205 24.4
2020-Aug-04 02:35 205 24.4
2020-Aug-04 02:31 205 0 gusting 2 24.4
2020-Aug-04 02:25 205 24.4
2020-Aug-04 02:20 205 24.4
2020-Aug-04 02:16 205 24.4
2020-Aug-04 02:10 205 1 gusting 3 24.4
2020-Aug-04 02:05 217 1 gusting 5 25.0
2020-Aug-04 02:00 225 1 gusting 6 25.0
2020-Aug-04 01:55 234 1 gusting 6 25.0
2020-Aug-04 01:50 192 2 gusting 5 25.0
2020-Aug-04 01:45 192 1 gusting 5 25.0
2020-Aug-04 01:40 217 1 gusting 3 25.6
2020-Aug-04 01:35 198 0 gusting 2 25.6
2020-Aug-04 01:25 198 25.6
2020-Aug-04 01:20 198 25.6
2020-Aug-04 01:15 198 25.6
2020-Aug-04 01:10 198 26.1
2020-Aug-04 01:05 198 26.1
2020-Aug-04 01:00 198 26.1
2020-Aug-04 00:55 198 26.7
2020-Aug-04 00:50 213 26.7
2020-Aug-04 00:40 213 1 gusting 4 26.7
2020-Aug-04 00:35 214 2 gusting 4 27.2
2020-Aug-04 00:30 214 1 gusting 5 27.2
2020-Aug-04 00:21 217 2 gusting 6 27.2
2020-Aug-04 00:18 217 2 gusting 6 27.2
2020-Aug-04 00:10 215 3 gusting 6 27.2
2020-Aug-04 00:06 216 3 gusting 8 27.8
2020-Aug-04 00:01 215 5 gusting 8 27.8